Starlink 32409

operational
NORAD ID: 61591 Int'l Des: 2024-187 Owner: SPXS Country: US Constellation: starlink
LEOCIRCULAR

About Starlink 32409

Description loading...

Live Position

Loading 3D Globe...

Upcoming Passes

Altitude History

Altitude vs Time

uPlot chart will show altitude changes over time

Two-Line Element Set

1 61591U 24187T 25260.11439930 -.00000054 00000-0 86386-5 0 9995
2 61591 53.1586 141.6655 0001078 95.1881 264.9247 15.39613821 52648
Epoch: Sep 17, 2025 • Age: 24 hours

Current Status

Altitude 450.1 km
Velocity 7.65 km/s
Sub-Earth Point 38.71°N, 141.39°E
Launch Date Oct 18, 2024
Age 0.9 years
Type internet

Technical Details

Classification Payload
Mass 730.00 kg
Dry Mass 700.00 kg
Total Mass 730.00 kg
Length 0.30 m
Diameter 4.10 m
Span 29.00 m
Shape Box + pan
Manufacturer SPXS
Bus Type Starlink V2M
Phase Status In Orbit
Owner/State SPXS/US

Large Constellations

Loading constellations...